Wind_Speed
37 30 29 23 23 24 23 20 18 17 19 15 16 17 15 13 12 14 18 10 14 17
37 38 32 33 25 26 25 21 16 17 16 15 16 19 17 14 14 14 13 12 15 20
37 40 37 35 35 30 26 24 22 24 22 21 19 20 20 18 17 15 13 10 12 17
35 40 38 39 39 39 30 28 30 26 27 26 25 23 23 21 20 19 17 16 16 14
37 38 40 42 42 41 39 34 32 33 31 29 28 25 25 23 24 21 18 18 20 21
39 39 42 42 44 44 42 40 38 37 38 36 32 30 28 25 25 24 19 18 20 21
44 42 42 43 44 46 45 41 42 42 40 39 37 35 31 27 27 29 26 25 24 24
45 44 42 44 45 45 48 47 43 42 42 42 39 38 35 35 32 33 26 22 23 25
45 45 45 45 46 45 43 44 45 44 43 42 42 40 36 37 34 33 29 22 21 25
45 44 44 45 45 44 42 40 40 40 40 41 39 37 36 37 35 33 33 23 22 23
45 44 42 42 43 42 40 38 38 37 38 37 36 32 32 33 34 32 34 25 21 22
47 44 46 45 42 40 38 37 37 36 37 35 33 32 29 30 31 32 32 26 22 22
50 47 48 47 43 40 38 36 35 35 34 30 27 27 27 22 26 29 31 27 27 24
48 47 47 44 40 41 36 34 33 30 29 26 24 22 23 23 20 19 24 27 27 25
Wind_Direction
213 214 204 205 215 226 235 240 223 226 227 215 219 218 217 208 201 201 201 183 195 200
212 216 207 204 213 225 229 233 218 230 231 229 227 224 220 213 214 203 198 209 215 201
216 215 215 213 213 217 222 224 226 235 240 243 240 230 225 219 211 215 213 226 218 205
223 218 217 217 219 219 218 217 223 229 237 243 245 240 231 221 219 213 218 232 229 227
226 223 220 219 222 223 222 224 225 230 235 240 244 245 241 232 222 218 226 235 236 233
226 226 224 222 222 225 223 223 229 232 237 243 246 249 250 243 232 228 233 242 245 243
228 227 226 226 224 225 228 227 229 235 240 244 248 252 253 252 238 229 234 241 253 255
229 230 229 230 232 229 228 234 236 239 242 246 248 251 253 256 244 230 230 235 251 246
227 229 230 232 233 236 234 234 236 240 244 248 250 254 259 260 252 241 237 239 247 242
227 228 231 232 234 235 236 238 240 242 244 248 253 257 258 258 254 249 240 244 246 240
225 228 229 231 233 233 235 237 241 243 247 247 254 261 260 254 250 249 241 246 240 240
222 226 227 229 230 232 231 233 236 242 246 249 255 256 261 253 244 246 239 242 235 242
222 224 228 229 228 230 229 232 235 239 247 255 258 255 256 263 251 243 235 231 236 254
220 224 227 226 225 222 222 228 233 241 247 248 251 255 261 255 255 242 236 244 250 258
Height
1525 1530 1535 1538 1541 1543 1545 1547 1549 1550 1552 1554 1555 1556 1557 1559 1560 1560 1559 1555 1557 1564
1519 1524 1528 1533 1537 1539 1542 1543 1545 1546 1549 1551 1552 1553 1555 1557 1557 1559 1560 1561 1561 1556
1512 1517 1523 1528 1531 1534 1537 1539 1540 1542 1544 1547 1549 1551 1552 1553 1556 1557 1557 1558 1559 1559
1505 1511 1517 1521 1525 1528 1532 1535 1536 1538 1540 1542 1543 1546 1547 1549 1551 1552 1554 1556 1557 1557
1498 1504 1510 1514 1517 1521 1526 1528 1530 1533 1534 1537 1539 1542 1544 1546 1548 1550 1551 1553 1555 1554
1491 1495 1500 1505 1509 1514 1518 1522 1524 1526 1528 1530 1534 1537 1540 1543 1546 1548 1550 1551 1551 1552
1481 1486 1491 1496 1502 1506 1509 1513 1516 1518 1521 1525 1528 1531 1535 1538 1540 1542 1544 1547 1548 1549
1472 1479 1485 1489 1493 1499 1503 1506 1510 1513 1516 1519 1523 1525 1527 1527 1528 1532 1536 1540 1542 1544
1466 1471 1476 1481 1486 1490 1496 1500 1504 1507 1510 1513 1515 1518 1523 1522 1526 1529 1532 1534 1536 1538
1457 1462 1467 1474 1479 1483 1487 1493 1496 1500 1504 1506 1510 1513 1517 1518 1520 1524 1527 1530 1531 1533
1447 1453 1460 1466 1470 1477 1482 1487 1489 1493 1496 1500 1503 1507 1509 1511 1514 1518 1521 1524 1525 1528
1437 1445 1452 1457 1464 1470 1476 1481 1484 1488 1491 1495 1497 1501 1503 1505 1507 1511 1515 1519 1521 1522
1430 1437 1443 1450 1458 1464 1471 1475 1479 1482 1485 1489 1492 1495 1498 1499 1501 1503 1508 1511 1513 1515
1427 1433 1437 1445 1452 1458 1465 1469 1473 1477 1481 1484 1487 1489 1492 1494 1496 1499 1502 1505 1507 1508